sat.trackr.live / text

‹ back to catalog

LARES

NORAD 38077 · 2012-006A

PAYLOAD ACTIVE UNKNOWN

§ Identity

Operator
Country
IT
Launch date
2012-02-13
Launch site
FRGUI
Launch vehicle
Mass (kg)
RCS (m²)
0.04

Purposes: science

External: N2YO · Heavens-Above · Gunter

§ Orbital elements

Epoch: 2026-05-25T00:26:35.877120Z

Period
114.75 min
Inclination
69.4904°
Eccentricity
0.0006716
Mean motion
12.54932092 rev/d
Perigee alt
1,438.7 km
Apogee alt
1,449.2 km
Semi-major
7,822.1 km
B*
4.9683e-6
RAAN
331.8211°
Arg perigee
54.2399°
Mean anomaly
305.9252°
Rev number
65,416

§ Raw data

LARES1 38077U 12006A   26145.01847080 -.00000038  00000+0  49683-5 0  99962 38077  69.4904 331.8211 0006716  54.2399 305.9252 12.54932092654165

JSON: /api/v1/satellites/38077 · /tle

For live sub-satellite position, see the globe view (requires WebGL).

§ Visibility from observer

Set your observer location to see the next 7 days of passes ≥ 10°. The values pass through the URL so the page stays shareable.

No JS? Fill the form by hand. The geolocation button needs JavaScript.